Location: Casteau
(50.5142°N, 4.0161°E)
Time: 23:06:56
(UTC+00:00)

Transit 2A - Pass Details

Date: 06 August 2021
Orbit: 594 x 964 km, 66.7° (Epoch: 26 September)

Event Time Altitude Azimuth Distance (km) Brightness Sun altitude
Rises 11:02:15 0° 322° (NW) 3,138 8.8 54.7°
Reaches altitude 10° 11:04:58 10° 337° (NNW) 2,280 8.2 54.9°
Maximum altitude 11:09:11 24° 31° (NNE) 1,617 7.7 55.1°
Drops below altitude 10° 11:13:44 10° 84° (E) 2,477 8.8 55.3°
Sets 11:16:49 0° 98° (E) 3,476 9.6 55.4°
